Hourly Data Report for October 22, 2014

All times are specified in Local Standard Time (LST). Add 1 hour to adjust for Daylight Saving Time where and when it is observed.

KITCHENER/WATERLOO
ONTARIO

43°27'39.000" N
80°22'43.000" W
321.60 m
6144239
71368
YKF

Download Data

Hourly Data (October 2014)
Hourly Data Report for October 22, 2014
Temp Definition
°C
Dew Point Temp Definition
°C
Rel Hum Definition
%
Wind Dir Definition
10's deg

Wind Spd Definition
km/h
Visibility Definition
km
Stn Press Definition
kPa
Hmdx Definition


Wind Chill Definition


Weather Definition


TIME
00:00 Legend Double Dagger 5.1 2.8 85 3 11 16.1 98.32     LegendNANA
01:00 Legend Double Dagger 4.9 2.1 82 2 11 16.1 98.33     LegendNANA
02:00 Legend Double Dagger 4.6 1.5 80 2 15 16.1 98.36     LegendNANA
03:00 Legend Double Dagger 4.3 1.1 80 1 15 16.1 98.39     LegendNANA
04:00 Legend Double Dagger 3.1 0.7 84 1 17 16.1 98.45     LegendNANA
05:00 Legend Double Dagger 2.5 0.2 85 1 11 16.1 98.49     LegendNANA
06:00 Legend Double Dagger 1.9 -0.1 87 1 8 16.1 98.52     LegendNANA
07:00 Legend Double Dagger 1.4 -0.1 90 35 9 16.1 98.59     LegendNANA
08:00 Legend Double Dagger 4.1 1.0 80 36 17 16.1 98.63     LegendNANA
09:00 Legend Double Dagger 6.3 2.0 74 36 17 16.1 98.66     LegendNANA
10:00 Legend Double Dagger 8.5 3.3 70 36 15 16.1 98.66     LegendNANA
11:00 Legend Double Dagger 10.6 4.1 64 4 15 16.1 98.65     LegendNANA
12:00 Legend Double Dagger 12.3 5.0 61 2 15 16.1 98.61     LegendNANA
13:00 Legend Double Dagger 12.0 4.5 60 35 15 16.1 98.56     LegendNANA
14:00 Legend Double Dagger 13.2 4.6 56 35 17 16.1 98.51     LegendNANA
15:00 Legend Double Dagger 13.1 4.3 55 36 18 16.1 98.51     LegendNANA
16:00 Legend Double Dagger 12.8 3.9 54 1 17 16.1 98.50     LegendNANA
17:00 Legend Double Dagger 11.3 4.2 62 1 9 16.1 98.51     LegendNANA
18:00 Legend Double Dagger 9.3 3.6 68 2 9 16.1 98.55     LegendNANA
19:00 Legend Double Dagger 7.4 3.1 74 36 11 16.1 98.56     LegendNANA
20:00 Legend Double Dagger 5.8 2.4 79 35 13 16.1 98.58     LegendNANA
21:00 Legend Double Dagger 4.9 2.8 86 34 9 16.1 98.59     LegendNANA
22:00 Legend Double Dagger 3.2 1.8 90 34 11 16.1 98.56     LegendNANA
23:00 Legend Double Dagger 3.6 2.4 92 33 5 16.1 98.54     LegendNANA

Notes on Data Quality.

Legend

  • E = Estimated
  • M = Missing
  • NA = Not Available
  • ‡ = Partner data that is not subject to review by the National Climate Archives
Date modified: